Theta_e
304 304 305 306 306 307 306 306 306 306 306 307 308 309 310 311 311 311 311 315 319 318 314 310 314 312 309 310 313 315 313 314 315 317 318 321 320 323 325 330 332 333 338 349 351
303 303 303 303 303 304 305 305 306 306 305 305 306 306 306 306 307 309 309 310 312 320 314 313 311 314 312 312 312 312 313 314 316 316 317 318 319 320 322 332 331 333 342 351 351
304 303 302 302 302 302 302 303 305 305 305 305 306 306 307 307 308 309 317 320 316 318 317 313 311 312 314 314 313 312 313 315 316 317 318 318 318 320 320 321 330 331 344 352 352
304 303 302 302 301 301 301 301 302 304 305 305 306 307 308 309 312 320 317 315 318 319 319 315 314 313 310 311 314 311 313 316 317 317 318 318 319 319 320 320 323 325 339 346 349
302 302 301 301 300 300 300 301 301 301 303 304 305 309 310 313 313 313 319 317 316 319 319 317 314 314 311 312 313 312 313 316 317 318 317 318 318 318 318 320 322 324 335 347 344
302 302 302 301 301 301 301 301 301 301 301 302 304 309 309 310 309 313 313 317 318 315 317 316 314 313 315 313 311 314 314 315 317 317 318 318 317 318 318 319 320 324 334 339 343
303 303 303 303 302 302 301 301 301 301 301 301 303 311 309 309 308 316 317 317 317 319 315 315 314 315 316 312 315 315 313 313 315 317 316 318 316 317 318 318 320 322 325 331 340
303 303 303 303 302 302 302 302 302 302 301 302 307 310 312 306 307 311 316 318 319 319 318 318 318 319 319 318 317 315 312 312 313 316 317 317 316 317 319 318 318 320 323 327 334
302 302 302 302 302 302 302 303 304 303 303 307 310 311 313 311 316 315 315 319 320 321 318 319 319 319 318 316 315 314 313 312 313 314 316 316 316 316 319 319 318 318 320 321 327
301 301 301 301 302 302 302 303 305 306 309 312 312 315 314 313 315 319 317 319 319 320 321 320 319 318 316 314 315 314 313 313 314 314 314 314 316 316 318 319 318 319 319 318 319
301 301 301 301 301 301 301 302 308 311 312 315 315 316 315 315 319 319 319 319 319 320 320 320 319 319 318 316 315 316 315 314 315 316 315 314 314 315 316 318 317 318 319 319 320
302 302 301 302 302 302 301 304 309 311 313 313 314 316 316 314 317 319 319 319 320 321 320 320 320 319 318 318 315 315 315 315 316 317 315 315 315 316 315 316 317 318 318 319 319
301 301 301 301 303 304 312 311 308 310 315 313 313 314 315 316 318 318 320 319 321 321 320 320 320 320 317 316 316 315 315 316 316 318 320 319 317 318 318 318 319 319 319 319 319
298 299 299 301 303 308 306 305 310 312 314 313 313 315 314 315 317 318 318 320 321 321 319 320 319 319 316 315 315 315 316 317 317 317 317 319 317 318 319 318 318 318 319 319 319
298 298 298 300 301 302 303 305 310 312 315 313 316 317 316 317 318 318 318 320 321 321 319 319 320 320 315 315 315 316 317 316 317 316 319 317 316 316 319 322 322 324 325 323 319
298 298 299 299 301 299 302 307 307 313 314 312 315 315 317 315 317 319 318 320 319 319 319 320 319 317 316 316 316 316 316 316 315 314 316 317 317 316 317 320 325 326 324 325 324
299 299 298 300 301 302 306 307 312 315 311 312 313 313 318 321 320 321 322 320 319 319 320 320 319 317 317 316 316 315 314 314 316 316 317 317 318 317 324 326 327 326 324 325 325
300 299 299 303 306 306 309 311 314 313 312 311 312 314 314 320 322 319 319 325 320 319 320 321 320 317 318 316 315 315 314 314 317 319 319 320 319 318 326 326 326 325 325 327 326
300 300 303 308 311 309 309 312 311 311 311 312 313 314 315 315 321 322 322 322 322 321 321 320 319 319 318 317 316 316 316 315 316 323 322 321 327 326 325 324 323 325 327 328 330
301 303 306 306 308 308 310 313 312 312 312 311 313 313 315 316 320 320 322 322 324 321 321 323 325 321 318 316 316 316 315 316 315 323 323 322 326 330 325 323 322 324 326 327 328
302 303 305 307 306 309 309 310 311 311 312 313 314 317 317 320 320 319 321 321 324 323 322 324 323 325 323 322 316 315 315 316 319 323 321 324 332 327 330 329 324 325 325 325 325
302 304 305 306 306 307 309 307 309 312 312 312 314 316 315 317 320 321 320 322 321 322 323 323 323 324 323 322 322 317 317 320 323 327 328 324 327 324 325 324 324 326 323 323 323
302 304 307 306 305 306 307 308 310 310 310 314 314 315 315 318 321 321 321 321 320 320 323 322 324 325 325 323 322 317 318 320 324 325 328 328 327 325 325 323 323 325 325 322 320
303 305 304 305 304 307 308 310 310 307 309 313 315 316 316 317 319 322 321 320 319 318 319 322 323 325 324 325 322 319 319 322 322 325 327 328 328 327 324 326 324 324 326 321 320
304 305 304 305 305 305 308 309 309 311 310 312 314 314 315 316 318 319 321 320 319 319 320 322 326 325 326 326 325 322 319 325 325 324 325 326 327 325 322 323 323 323 323 320 319
302 303 303 303 303 306 308 308 311 310 312 312 311 312 316 317 319 320 320 320 320 319 319 323 326 322 326 324 325 326 324 326 326 325 325 322 326 322 322 322 323 323 319 318 317
302 302 304 303 304 306 307 308 309 309 310 311 311 313 312 313 313 313 316 317 318 319 322 322 326 323 324 324 324 327 326 326 325 326 324 328 325 323 323 320 319 320 319 315 314
Wind_Speed
21 21 21 20 19 20 21 22 22 23 24 25 26 25 25 26 28 29 37 30 22 15 22 13 11 11 13 15 19 18 9 13 18 15 13 23 15 29 31 29 20 18 3 17 20
22 22 22 22 23 23 23 23 23 23 24 25 25 26 26 27 29 39 30 29 24 22 17 20 17 16 21 16 10 8 8 19 10 13 14 20 20 23 18 9 22 28 7 21 26
23 23 22 22 22 23 23 23 24 24 25 24 25 24 23 21 26 20 7 11 20 27 22 13 14 17 25 24 19 10 18 11 16 28 31 23 27 25 11 9 8 20 19 23 21
22 22 23 25 25 25 24 24 24 24 25 25 24 22 19 12 6 5 5 2 10 22 23 22 21 24 7 13 30 14 24 23 24 28 26 14 25 20 20 18 22 26 25 26 24
25 25 26 28 28 27 26 25 25 25 25 25 23 18 17 10 34 19 13 9 5 22 28 27 23 23 14 11 21 19 15 27 33 34 31 29 22 22 23 27 24 16 16 23 27
28 29 29 29 29 30 30 28 28 26 25 24 22 15 14 18 25 13 21 20 15 17 27 27 15 26 14 17 12 19 20 24 27 30 32 18 17 18 33 26 22 8 6 19 22
29 30 30 30 30 30 30 29 27 26 26 25 21 16 22 48 22 8 22 29 24 24 21 25 26 22 25 10 28 26 16 14 15 18 9 17 10 20 29 26 25 19 12 11 22
32 33 33 33 33 32 32 32 31 27 29 26 18 13 24 40 35 28 31 23 29 27 27 22 21 30 29 20 17 10 8 13 10 7 15 12 14 10 22 25 27 25 17 14 20
33 34 33 33 32 31 31 33 32 30 29 17 11 15 19 19 26 27 32 33 31 25 29 23 24 26 22 8 8 7 9 9 7 11 8 14 12 10 21 22 25 30 26 20 16
33 34 34 33 31 32 31 33 32 19 13 6 12 9 21 25 19 14 28 34 29 33 25 28 20 13 5 7 13 11 10 11 12 14 13 10 13 11 24 21 18 18 37 27 25
34 35 35 35 34 32 32 35 9 7 14 19 19 20 24 29 20 21 17 28 33 30 20 30 12 15 18 16 13 15 16 13 18 15 11 15 9 10 16 22 19 26 24 29 24
36 36 37 36 35 31 31 17 23 16 23 31 38 46 46 42 25 29 25 23 21 21 20 11 23 18 16 19 18 19 19 18 11 18 12 10 10 10 11 11 26 29 31 31 32
37 38 38 39 35 25 9 24 24 29 13 36 41 49 52 37 38 39 30 36 17 20 25 24 14 20 20 19 21 20 19 16 10 8 4 5 4 5 7 12 21 27 36 35 31
37 38 38 39 26 12 28 26 19 18 7 15 12 20 35 30 22 40 39 36 17 23 18 22 19 22 24 22 20 19 20 20 13 6 4 3 6 8 7 12 8 19 28 33 32
40 39 38 33 38 34 31 20 12 12 5 10 10 9 11 30 7 31 37 35 25 22 17 23 22 26 23 24 21 17 15 16 10 6 2 8 1 7 5 5 3 7 17 11 26
43 42 40 41 31 41 29 11 22 4 11 8 5 7 10 25 17 4 26 32 29 22 24 26 21 20 23 21 23 19 8 7 9 4 5 6 6 7 7 7 5 4 15 16 11
47 46 42 38 44 30 11 16 5 8 7 11 13 15 3 10 9 5 10 22 19 20 20 19 27 21 20 19 21 12 6 2 2 4 5 11 10 11 5 7 7 8 13 14 12
50 48 43 38 34 24 11 5 11 9 20 19 27 23 20 1 9 8 7 16 23 16 12 15 15 24 19 20 8 10 9 5 8 5 10 13 9 7 8 11 14 15 15 13 18
51 47 37 29 36 21 21 11 7 14 18 24 26 21 15 11 10 5 9 14 8 20 14 12 19 13 20 16 10 9 10 8 3 3 2 3 5 7 8 8 9 12 12 25 27
45 38 16 35 21 21 3 4 6 12 21 24 24 13 23 21 4 3 6 2 14 23 6 6 5 15 15 12 14 14 9 9 3 6 5 0 5 1 5 7 15 6 19 27 29
31 18 8 29 25 8 2 5 20 27 28 13 12 11 16 19 3 4 1 3 6 16 9 5 3 5 7 4 11 7 10 6 4 4 6 4 3 9 4 7 12 15 16 26 22
17 6 22 30 6 4 5 11 19 22 25 14 10 16 16 16 7 8 10 7 11 11 10 5 4 4 4 14 15 9 8 7 5 1 3 4 2 5 3 11 24 13 15 24 22
21 13 10 23 8 9 8 12 14 15 17 5 6 8 5 6 4 5 8 11 19 5 10 7 5 5 9 10 15 9 8 6 8 4 6 5 1 3 7 8 27 23 5 16 27
9 5 11 14 26 13 11 8 15 21 18 9 3 6 10 6 7 4 3 7 18 11 12 8 4 6 7 2 2 13 10 11 8 4 4 4 9 8 9 10 4 1 4 12 28
6 3 8 7 12 20 14 9 20 10 6 13 7 14 6 3 3 1 3 7 4 7 9 5 6 6 2 9 7 3 7 10 6 6 5 12 17 12 10 17 11 16 8 30 29
10 7 6 16 24 17 10 7 19 21 9 13 13 15 9 0 9 6 4 3 2 5 9 8 6 3 3 6 5 3 8 8 11 2 8 10 11 10 20 27 21 16 20 27 23
19 19 9 10 11 12 9 18 22 20 8 14 14 9 8 9 15 15 13 2 1 2 9 11 5 4 2 5 7 4 3 7 14 13 11 13 9 14 16 15 21 17 19 23 24
Wind_Direction
329 325 323 321 316 312 310 308 307 306 305 303 302 299 298 299 294 284 273 263 259 248 230 219 198 235 219 230 227 228 233 238 241 242 243 269 273 275 288 241 244 277 353 150 162
330 327 325 322 319 316 312 309 307 305 303 303 303 302 302 303 298 285 288 272 245 236 224 219 215 209 203 221 229 210 226 234 245 255 263 271 283 287 309 295 238 254 136 155 150
330 329 328 323 318 314 310 308 305 303 302 303 302 303 301 308 314 292 314 294 233 214 224 217 231 241 224 224 222 250 241 244 239 253 266 276 282 290 298 291 262 225 168 162 166
330 329 328 326 320 316 313 311 307 303 300 300 301 303 300 308 267 206 250 310 215 206 213 218 223 245 243 220 225 239 240 245 253 258 259 263 283 283 279 276 299 320 183 159 153
331 325 322 322 320 317 313 311 308 304 298 297 298 303 303 254 250 247 249 290 293 198 211 206 216 228 240 225 223 229 242 237 239 247 255 268 271 277 285 292 284 317 194 149 145
331 328 324 323 320 317 315 314 312 308 301 297 294 292 274 260 286 278 230 256 248 211 204 208 216 214 252 239 234 239 243 246 242 231 237 249 261 283 272 281 288 273 127 141 145
326 325 323 321 319 318 315 312 310 307 302 295 287 272 252 248 266 231 220 238 240 232 214 206 216 227 226 260 249 247 254 268 243 241 232 242 260 248 267 276 285 280 262 241 159
326 325 325 324 322 321 316 312 310 309 299 290 284 263 252 277 281 250 223 220 228 225 231 213 221 241 257 269 274 255 256 250 258 235 227 215 256 263 261 268 276 275 268 250 209
328 327 327 327 324 322 315 309 307 302 286 287 257 240 270 290 264 265 213 221 212 217 213 225 233 240 247 250 272 269 241 244 246 255 232 198 242 251 266 258 259 265 264 256 246
326 325 324 322 320 317 313 309 312 274 271 246 238 244 258 255 263 267 213 209 214 205 206 221 228 233 228 217 227 233 227 236 247 228 238 242 229 222 236 251 257 265 260 255 252
326 325 323 322 319 319 316 319 316 289 198 204 213 211 265 271 284 232 219 203 216 197 204 210 211 215 209 225 232 244 245 226 230 239 201 230 222 212 214 225 237 250 253 264 266
328 326 325 321 320 317 305 277 287 288 296 260 249 245 250 259 273 274 193 193 218 210 194 191 219 213 219 223 227 240 247 253 261 227 205 207 225 223 224 212 214 225 238 251 261
328 326 325 322 323 318 293 279 325 312 273 272 254 248 244 238 241 251 197 199 222 214 199 205 205 208 219 221 221 228 242 252 247 289 191 178 267 257 259 223 226 224 227 235 249
327 324 324 325 324 289 279 297 292 327 273 290 249 251 224 207 250 235 235 191 215 223 211 223 225 203 215 225 213 226 225 242 258 266 228 163 241 251 238 242 245 239 225 226 235
328 326 323 319 303 294 299 292 312 338 279 275 281 215 158 174 192 207 220 198 202 204 208 222 199 223 212 219 226 228 215 214 244 261 205 290 92 256 260 186 175 39 60 16 247
329 325 320 311 293 296 308 320 319 234 240 261 313 300 143 210 240 301 206 202 210 212 211 224 222 217 227 213 223 232 219 183 201 203 245 228 234 261 242 215 116 79 80 67 98
330 326 319 306 286 308 295 281 232 226 268 260 269 320 228 190 245 351 288 205 201 208 230 223 226 232 225 219 209 209 131 221 227 211 216 223 226 228 179 133 143 140 127 108 108
331 331 327 330 328 301 269 227 228 241 228 276 298 314 320 113 175 157 231 236 209 212 210 229 228 217 224 225 180 205 166 158 180 173 228 232 248 272 106 86 108 115 99 102 110
334 337 339 340 320 259 225 223 223 239 267 291 310 322 300 323 335 206 202 213 236 251 210 214 247 226 227 208 177 191 201 190 160 220 103 192 144 66 89 92 86 81 50 83 82
340 336 332 353 13 356 188 292 274 290 293 297 291 266 288 299 155 306 215 212 207 223 188 312 300 231 218 193 225 186 162 210 201 181 221 278 78 245 40 7 36 59 83 77 79
345 325 323 350 335 351 222 274 317 320 313 303 285 290 287 290 145 166 220 304 227 197 215 279 133 306 333 253 193 188 192 189 130 125 170 128 126 359 41 73 54 25 35 99 93
339 308 335 351 27 338 326 298 308 315 315 303 262 255 247 286 231 183 188 194 204 184 196 190 147 242 287 293 300 193 180 145 125 248 69 103 91 334 49 118 88 54 3 115 123
322 293 0 354 7 336 323 316 308 330 322 290 301 212 233 247 218 226 203 146 139 124 169 199 168 113 315 294 268 196 190 146 106 96 167 123 213 66 95 101 133 159 175 133 125
311 313 326 335 341 328 322 323 335 319 312 262 305 32 358 351 240 193 225 162 173 157 180 327 162 145 190 153 230 195 181 148 123 118 142 152 151 161 115 108 122 253 168 160 117
334 328 332 316 332 321 332 307 320 327 291 12 18 5 28 265 225 31 209 115 162 211 151 237 172 206 193 22 344 27 176 123 119 147 142 165 156 173 158 118 85 46 192 117 113
345 327 319 307 312 330 340 331 336 331 347 1 356 336 351 112 13 123 316 201 220 184 167 217 165 81 116 39 346 356 14 135 123 66 6 151 128 159 133 125 134 131 94 84 82
324 320 288 307 320 331 332 339 334 335 305 8 0 333 21 358 326 309 313 358 240 225 206 189 132 124 207 122 338 312 78 9 90 111 196 99 111 137 115 99 97 119 112 90 80